Location: Unspecified
(64.9000°N, 0.0000°E)
Time: 07:44:47
(UTC+00:00)

Transit 2A Rocket - Pass Details

Date: 18 June 2019
Orbit: 588 x 915 km, 66.7° (Epoch: 19 July)

Event Time Altitude Azimuth Distance (km) Brightness Sun altitude
Rises 18:30:36 0° 302° (WNW) 3,450 9.9 18.1°
Reaches altitude 10° 18:33:14 10° 297° (WNW) 2,468 9.8 17.8°
Maximum altitude 18:38:42 51° 224° (SW) 997 6.1 17.2°
Drops below altitude 10° 18:43:41 10° 150° (SSE) 2,247 7.0 16.7°
Sets 18:45:59 0° 145° (SE) 3,114 7.7 16.5°
